Location: Cisewo
(53.3833°N, 14.9000°E)
Time: 02:33:32
(UTC+00:00)

CUBEBUG 2 - Visible Passes

Search period start: 23 October 2021 00:00
Search period end: 02 November 2021 00:00
Orbit: 585 x 696 km, 97.7° (Epoch: 22 October)

Date Brightness Start Highest point End Pass type
(mag) Time Alt. Az. Time Alt. Az. Time Alt. Az.
23 Oct ? 02:24:05 10° NNE 02:27:12 41° NE 02:27:12 41° NE visible
23 Oct ? 04:01:13 10° N 04:04:37 23° WNW 04:04:46 23° WNW visible
24 Oct ? 01:12:53 10° ENE 01:13:22 11° ENE 01:13:22 11° ENE visible
24 Oct ? 02:47:45 10° NNE 02:50:57 49° NNE 02:50:57 49° NNE visible
24 Oct ? 04:25:31 10° NNW 04:28:02 15° NW 04:28:32 15° WNW visible
25 Oct ? 01:35:36 10° NE 01:37:08 16° ENE 01:37:08 16° ENE visible
25 Oct ? 03:11:32 10° N 03:14:44 43° NNW 03:14:44 43° NNW visible
25 Oct ? 04:50:50 10° NW 04:51:22 10° NW 04:51:55 10° WNW visible
26 Oct ? 01:58:51 10° NNE 02:00:54 23° NE 02:00:54 23° NE visible
26 Oct ? 03:35:26 10° N 03:38:30 31° NW 03:38:30 31° NW visible
27 Oct ? 02:22:21 10° NNE 02:24:40 29° NE 02:24:40 29° NE visible
27 Oct ? 03:59:28 10° N 04:02:16 22° NW 04:02:16 22° NW visible
28 Oct ? 02:46:00 10° NNE 02:48:26 33° NNE 02:48:26 33° NNE visible
28 Oct ? 04:23:46 10° NNW 04:26:02 15° NW 04:26:02 15° NW visible
29 Oct ? 01:33:53 10° NE 01:34:38 13° NE 01:34:38 13° NE visible
29 Oct ? 03:09:46 10° N 03:12:12 32° N 03:12:12 32° N visible
29 Oct ? 04:49:04 10° NW 04:49:36 10° NW 04:49:47 10° NW visible
30 Oct ? 01:57:07 10° NNE 01:58:23 17° NE 01:58:23 17° NE visible
30 Oct ? 03:33:39 10° N 03:35:58 26° NNW 03:35:58 26° NNW visible
31 Oct ? 02:20:35 10° NNE 02:22:10 21° NNE 02:22:10 21° NNE visible
31 Oct ? 03:57:41 10° N 03:59:44 20° NW 03:59:44 20° NW visible
01 Nov ? 02:44:13 10° NNE 02:45:55 23° NNE 02:45:55 23° NNE visible
01 Nov ? 04:21:57 10° NNW 04:23:31 14° NW 04:23:31 14° NW visible
